Time,TemperatureF,DewpointF,PressureIn,WindDirection,WindDirectionDegrees,WindSpeedMPH,WindSpeedGustMPH,Humidity,HourlyPrecipIn,Conditions,Clouds,dailyrainin,SolarRadiationWatts/m^2,SoftwareType,DateUTC
2013-01-16 00:06:00,36.3,35.3,30.10,NE,38,5.0,8.0,96,0.00,,,0.89,0,Wunderground v.1.15,2013-01-16 05:06:00,
2013-01-16 00:10:00,36.3,35.3,30.10,NE,37,5.0,5.0,96,0.00,,,0.89,0,Wunderground v.1.15,2013-01-16 05:10:00,
2013-01-16 00:15:00,36.3,35.3,30.09,NNE,26,6.0,6.0,96,0.00,,,0.00,0,Wunderground v.1.15,2013-01-16 05:15:00,
2013-01-16 00:20:00,36.3,35.5,30.09,NNE,22,4.0,12.0,97,0.04,,,0.01,0,Wunderground v.1.15,2013-01-16 05:20:00,
2013-01-16 00:25:00,36.2,35.2,30.09,ENE,57,6.0,12.0,96,0.14,,,0.02,0,Wunderground v.1.15,2013-01-16 05:25:00,
2013-01-16 00:30:00,36.2,35.2,30.08,NE,51,6.0,6.0,96,0.09,,,0.02,0,Wunderground v.1.15,2013-01-16 05:30:00,
2013-01-16 00:36:00,36.2,35.4,30.08,NE,49,4.0,7.0,97,0.05,,,0.02,0,Wunderground v.1.15,2013-01-16 05:36:00,
2013-01-16 00:45:00,36.0,35.0,30.08,NE,47,7.0,16.0,96,0.07,,,0.04,0,Wunderground v.1.15,2013-01-16 05:45:00,
2013-01-16 00:50:00,35.8,34.8,30.08,NE,55,7.0,7.0,96,0.07,,,0.04,0,Wunderground v.1.15,2013-01-16 05:50:00,
2013-01-16 00:55:00,35.8,34.8,30.08,NE,48,5.0,16.0,96,0.05,,,0.04,0,Wunderground v.1.15,2013-01-16 05:55:00,
2013-01-16 01:00:00,35.6,34.6,30.07,NE,45,4.0,4.0,96,0.04,,,0.04,0,Wunderground v.1.15,2013-01-16 06:00:00,
2013-01-16 01:05:00,35.6,34.6,30.07,NE,46,4.0,16.0,96,0.00,,,0.05,0,Wunderground v.1.15,2013-01-16 06:05:00,
2013-01-16 01:15:00,35.5,34.5,30.05,NE,49,6.0,16.0,96,0.00,,,0.05,0,Wunderground v.1.15,2013-01-16 06:15:00,
2013-01-16 01:20:00,35.3,34.3,30.05,NE,39,7.0,7.0,96,0.04,,,0.06,0,Wunderground v.1.15,2013-01-16 06:20:00,
2013-01-16 01:25:00,35.3,34.3,30.05,North,11,5.0,16.0,96,0.04,,,0.06,0,Wunderground v.1.15,2013-01-16 06:25:00,
2013-01-16 01:30:00,35.3,34.3,30.07,NNE,20,4.0,16.0,96,0.06,,,0.07,0,Wunderground v.1.15,2013-01-16 06:30:00,
2013-01-16 01:35:00,35.3,34.3,30.07,NNE,24,4.0,16.0,96,0.06,,,0.07,0,Wunderground v.1.15,2013-01-16 06:35:00,
2013-01-16 01:45:00,35.2,34.2,30.07,NNE,23,5.0,5.0,96,0.07,,,0.08,0,Wunderground v.1.15,2013-01-16 06:45:00,
2013-01-16 01:50:00,35.2,34.2,30.07,NE,36,5.0,14.0,96,0.05,,,0.09,0,Wunderground v.1.15,2013-01-16 06:50:00,
2013-01-16 01:55:00,35.2,34.2,30.07,NE,46,6.0,14.0,96,0.12,,,0.10,0,Wunderground v.1.15,2013-01-16 06:55:00,
2013-01-16 02:00:00,35.2,34.4,30.04,NE,46,6.0,14.0,97,0.08,,,0.10,0,Wunderground v.1.15,2013-01-16 07:00:00,
2013-01-16 02:05:00,35.2,34.4,30.04,NNE,30,5.0,14.0,97,0.07,,,0.11,0,Wunderground v.1.15,2013-01-16 07:05:00,
2013-01-16 02:15:00,35.2,34.2,30.06,NNE,26,6.0,14.0,96,0.08,,,0.12,0,Wunderground v.1.15,2013-01-16 07:15:00,
2013-01-16 02:20:00,35.2,34.4,30.06,NNE,30,5.0,12.0,97,0.05,,,0.13,0,Wunderground v.1.15,2013-01-16 07:20:00,
2013-01-16 02:25:00,35.2,34.4,30.06,NNE,26,5.0,12.0,97,0.05,,,0.13,0,Wunderground v.1.15,2013-01-16 07:25:00,
2013-01-16 02:30:00,35.2,34.4,30.05,NNE,24,4.0,12.0,97,0.07,,,0.14,0,Wunderground v.1.15,2013-01-16 07:30:00,
2013-01-16 02:35:00,35.2,34.4,30.05,NNE,20,5.0,12.0,97,0.07,,,0.14,0,Wunderground v.1.15,2013-01-16 07:35:00,
2013-01-16 02:41:00,35.2,34.4,30.05,NNE,27,5.0,5.0,97,0.06,,,0.15,0,Wunderground v.1.15,2013-01-16 07:41:00,
2013-01-16 02:50:00,35.2,34.4,30.04,NNE,24,5.0,5.0,97,0.09,,,0.16,0,Wunderground v.1.15,2013-01-16 07:50:00,
2013-01-16 02:55:00,35.3,34.5,30.04,NNE,19,6.0,6.0,97,0.07,,,0.17,0,Wunderground v.1.15,2013-01-16 07:55:00,
2013-01-16 03:00:00,35.3,34.5,30.06,North,355,5.0,11.0,97,0.07,,,0.17,0,Wunderground v.1.15,2013-01-16 08:00:00,
2013-01-16 03:10:00,35.5,34.7,30.06,North,350,6.0,11.0,97,0.05,,,0.18,0,Wunderground v.1.15,2013-01-16 08:10:00,
2013-01-16 03:15:00,35.5,34.7,30.07,North,355,6.0,11.0,97,0.05,,,0.18,0,Wunderground v.1.15,2013-01-16 08:15:00,
2013-01-16 03:20:00,35.5,34.7,30.07,North,349,6.0,11.0,97,0.05,,,0.19,0,Wunderground v.1.15,2013-01-16 08:20:00,
2013-01-16 03:25:00,35.5,34.7,30.07,North,360,7.0,11.0,97,0.05,,,0.19,0,Wunderground v.1.15,2013-01-16 08:25:00,
2013-01-16 03:30:00,35.5,34.7,30.07,North,355,8.0,11.0,97,0.06,,,0.20,0,Wunderground v.1.15,2013-01-16 08:30:00,
2013-01-16 03:40:00,35.5,34.7,30.07,North,355,9.0,11.0,97,0.07,,,0.21,0,Wunderground v.1.15,2013-01-16 08:40:00,
2013-01-16 03:45:00,35.5,34.7,30.07,North,355,9.0,12.0,97,0.09,,,0.22,0,Wunderground v.1.15,2013-01-16 08:45:00,
2013-01-16 03:50:00,35.6,34.8,30.07,North,5,9.0,18.0,97,0.11,,,0.23,0,Wunderground v.1.15,2013-01-16 08:50:00,
2013-01-16 04:00:00,35.6,34.8,30.05,North,5,9.0,9.0,97,0.08,,,0.24,0,Wunderground v.1.15,2013-01-16 09:00:00,
2013-01-16 04:05:00,35.5,34.7,30.05,NNE,12,9.0,18.0,97,0.10,,,0.25,0,Wunderground v.1.15,2013-01-16 09:05:00,
2013-01-16 04:10:00,35.5,34.7,30.05,NNE,12,9.0,9.0,97,0.11,,,0.26,0,Wunderground v.1.15,2013-01-16 09:10:00,
2013-01-16 04:15:00,35.5,34.7,30.04,NNE,27,8.0,11.0,97,0.08,,,0.26,0,Wunderground v.1.15,2013-01-16 09:15:00,
2013-01-16 04:25:00,35.5,34.7,30.04,NNE,20,6.0,18.0,97,0.10,,,0.28,0,Wunderground v.1.15,2013-01-16 09:25:00,
2013-01-16 04:30:00,35.3,34.5,30.03,North,5,7.0,7.0,97,0.08,,,0.29,0,Wunderground v.1.15,2013-01-16 09:30:00,
2013-01-16 04:35:00,35.3,34.5,30.03,NNE,12,6.0,9.0,97,0.08,,,0.29,0,Wunderground v.1.15,2013-01-16 09:35:00,
2013-01-16 04:40:00,35.3,34.5,30.03,NNE,14,6.0,6.0,97,0.06,,,0.30,0,Wunderground v.1.15,2013-01-16 09:40:00,
2013-01-16 04:45:00,35.5,34.7,30.02,NNE,16,5.0,14.0,97,0.06,,,0.30,0,Wunderground v.1.15,2013-01-16 09:45:00,
2013-01-16 04:50:00,35.5,34.7,30.02,NNE,23,5.0,5.0,97,0.06,,,0.30,0,Wunderground v.1.15,2013-01-16 09:50:00,
2013-01-16 05:00:00,35.5,34.7,30.01,NNE,26,4.0,14.0,97,0.00,,,0.30,0,Wunderground v.1.15,2013-01-16 10:00:00,
2013-01-16 05:05:00,35.3,34.5,30.01,NNE,31,5.0,14.0,97,0.00,,,0.30,0,Wunderground v.1.15,2013-01-16 10:05:00,
2013-01-16 05:10:00,35.3,34.5,30.01,NNE,31,6.0,6.0,97,0.00,,,0.30,0,Wunderground v.1.15,2013-01-16 10:10:00,
2013-01-16 05:15:00,35.3,34.5,29.99,NE,34,6.0,12.0,97,0.00,,,0.30,0,Wunderground v.1.15,2013-01-16 10:15:00,
2013-01-16 05:20:00,35.3,34.5,29.99,NNE,21,7.0,12.0,97,0.00,,,0.30,0,Wunderground v.1.15,2013-01-16 10:20:00,
2013-01-16 05:25:00,35.5,34.7,29.99,NNE,13,7.0,12.0,97,0.00,,,0.30,0,Wunderground v.1.15,2013-01-16 10:25:00,
2013-01-16 05:35:00,35.3,34.5,30.01,NE,35,6.0,12.0,97,0.00,,,0.30,0,Wunderground v.1.15,2013-01-16 10:35:00,
2013-01-16 05:40:00,35.3,34.5,30.01,NE,55,5.0,5.0,97,0.00,,,0.30,0,Wunderground v.1.15,2013-01-16 10:40:00,
2013-01-16 05:45:00,35.3,34.5,29.98,ENE,57,5.0,14.0,97,0.00,,,0.30,0,Wunderground v.1.15,2013-01-16 10:45:00,
2013-01-16 05:50:00,35.5,34.7,29.98,NE,56,4.0,14.0,97,0.00,,,0.30,0,Wunderground v.1.15,2013-01-16 10:50:00,
2013-01-16 05:55:00,35.5,34.7,29.98,NE,43,4.0,14.0,97,0.00,,,0.30,0,Wunderground v.1.15,2013-01-16 10:55:00,
2013-01-16 06:00:00,35.5,34.7,29.99,NE,39,4.0,14.0,97,0.00,,,0.30,0,Wunderground v.1.15,2013-01-16 11:00:00,
2013-01-16 06:05:00,35.5,34.7,29.99,NE,35,4.0,14.0,97,0.00,,,0.30,0,Wunderground v.1.15,2013-01-16 11:05:00,
2013-01-16 06:10:00,35.5,34.7,29.99,NNE,28,4.0,14.0,97,0.00,,,0.30,0,Wunderground v.1.15,2013-01-16 11:10:00,
2013-01-16 06:20:00,35.5,34.7,30.00,NNE,32,6.0,6.0,97,0.00,,,0.30,0,Wunderground v.1.15,2013-01-16 11:20:00,
2013-01-16 06:25:00,35.5,34.7,30.00,NNE,17,6.0,10.0,97,0.00,,,0.30,0,Wunderground v.1.15,2013-01-16 11:25:00,
2013-01-16 06:30:00,35.6,34.8,30.01,NNE,16,6.0,6.0,97,0.00,,,0.30,0,Wunderground v.1.15,2013-01-16 11:30:00,
2013-01-16 06:35:00,35.6,34.8,30.01,NNE,17,5.0,10.0,97,0.00,,,0.30,0,Wunderground v.1.15,2013-01-16 11:35:00,
2013-01-16 06:40:00,35.6,34.8,30.01,NNE,17,4.0,4.0,97,0.00,,,0.30,0,Wunderground v.1.15,2013-01-16 11:40:00,
2013-01-16 06:50:00,35.8,35.3,30.00,NNE,19,4.0,4.0,98,0.00,,,0.30,0,Wunderground v.1.15,2013-01-16 11:50:00,
2013-01-16 06:55:00,35.8,35.3,30.00,NNE,19,3.0,12.0,98,0.00,,,0.30,0,Wunderground v.1.15,2013-01-16 11:55:00,
2013-01-16 07:00:00,36.4,35.4,30.01,NNE,19,3.0,12.0,96,0.00,,,0.30,,Wunderground v.1.15,2013-01-16 12:00:00,
2013-01-16 07:05:00,36.4,35.4,30.01,NNE,19,3.0,12.0,96,0.00,,,0.30,,Wunderground v.1.15,2013-01-16 12:05:00,
2013-01-16 07:10:00,36.4,35.4,30.01,NNE,19,4.0,4.0,96,0.00,,,0.30,,Wunderground v.1.15,2013-01-16 12:10:00,
2013-01-16 07:20:00,36.4,35.4,30.00,NNE,21,4.0,4.0,96,0.00,,,0.30,,Wunderground v.1.15,2013-01-16 12:20:00,
2013-01-16 07:25:00,36.4,35.4,30.00,NNE,21,3.0,9.0,96,0.00,,,0.30,,Wunderground v.1.15,2013-01-16 12:25:00,
2013-01-16 07:30:00,36.4,35.4,29.99,NNE,22,3.0,9.0,96,0.00,,,0.30,,Wunderground v.1.15,2013-01-16 12:30:00,
2013-01-16 07:36:00,36.4,35.1,29.99,NNE,22,3.0,9.0,95,0.00,,,0.30,,Wunderground v.1.15,2013-01-16 12:36:00,
2013-01-16 07:45:00,36.5,35.5,29.99,NNE,22,2.0,9.0,96,0.00,,,0.30,,Wunderground v.1.15,2013-01-16 12:45:00,
2013-01-16 07:50:00,36.5,35.5,29.99,NNE,22,2.0,2.0,96,0.00,,,0.30,,Wunderground v.1.15,2013-01-16 12:50:00,
2013-01-16 07:55:00,36.6,35.6,29.99,NNE,22,1.0,3.0,96,0.00,,,0.30,,Wunderground v.1.15,2013-01-16 12:55:00,
2013-01-16 08:05:00,36.6,35.6,29.99,NNE,22,2.0,9.0,96,0.00,,,0.30,,Wunderground v.1.15,2013-01-16 13:05:00,
2013-01-16 08:10:00,36.7,35.7,29.99,NNE,22,1.0,9.0,96,0.00,,,0.30,,Wunderground v.1.15,2013-01-16 13:10:00,
2013-01-16 08:15:00,36.8,35.8,29.99,NNE,22,1.0,9.0,96,0.00,,,0.30,,Wunderground v.1.15,2013-01-16 13:15:00,
2013-01-16 08:20:00,36.9,35.9,29.99,NNE,22,1.0,1.0,96,0.00,,,0.30,,Wunderground v.1.15,2013-01-16 13:20:00,
2013-01-16 08:25:00,37.0,36.0,29.99,NNE,22,1.0,2.0,96,0.00,,,0.30,,Wunderground v.1.15,2013-01-16 13:25:00,
2013-01-16 08:30:00,37.0,36.0,29.99,NNE,22,1.0,1.0,96,0.00,,,0.30,,Wunderground v.1.15,2013-01-16 13:30:00,
2013-01-16 08:40:00,37.0,36.0,29.99,NNE,22,1.0,1.0,96,0.00,,,0.30,,Wunderground v.1.15,2013-01-16 13:40:00,
2013-01-16 08:45:00,37.0,36.0,29.99,NNE,22,0.0,2.0,96,0.00,,,0.30,,Wunderground v.1.15,2013-01-16 13:45:00,
2013-01-16 08:50:00,37.0,35.7,29.99,NNE,22,1.0,4.0,95,0.00,,,0.30,,Wunderground v.1.15,2013-01-16 13:50:00,
2013-01-16 08:55:00,37.0,35.7,29.99,NNE,22,2.0,4.0,95,0.00,,,0.30,,Wunderground v.1.15,2013-01-16 13:55:00,
2013-01-16 09:00:00,37.1,36.1,29.99,NNE,22,1.0,1.0,96,0.00,,,0.30,,Wunderground v.1.15,2013-01-16 14:00:00,
2013-01-16 09:05:00,37.2,36.2,29.99,NNE,22,0.0,4.0,96,0.00,,,0.30,,Wunderground v.1.15,2013-01-16 14:05:00,
2013-01-16 09:10:00,37.3,36.3,29.99,NNE,22,0.0,4.0,96,0.00,,,0.30,,Wunderground v.1.15,2013-01-16 14:10:00,
2013-01-16 09:20:00,37.3,36.0,29.99,NNE,22,0.0,4.0,95,0.00,,,0.30,,Wunderground v.1.15,2013-01-16 14:20:00,
2013-01-16 09:30:00,37.4,36.1,30.00,NNE,22,1.0,1.0,95,0.00,,,0.31,,Wunderground v.1.15,2013-01-16 14:30:00,
2013-01-16 09:35:00,37.4,36.1,30.00,NNE,22,0.0,4.0,95,0.00,,,0.31,,Wunderground v.1.15,2013-01-16 14:35:00,
2013-01-16 09:40:00,37.4,36.1,30.00,NNE,22,0.0,4.0,95,0.05,,,0.32,,Wunderground v.1.15,2013-01-16 14:40:00,
2013-01-16 09:45:00,37.5,36.2,30.00,NNE,22,1.0,4.0,95,0.05,,,0.32,,Wunderground v.1.15,2013-01-16 14:45:00,
2013-01-16 09:50:00,37.5,36.2,30.00,NNE,22,1.0,1.0,95,0.04,,,0.32,,Wunderground v.1.15,2013-01-16 14:50:00,
2013-01-16 09:55:00,37.4,36.1,30.00,NNE,22,0.0,3.0,95,0.00,,,0.32,,Wunderground v.1.15,2013-01-16 14:55:00,
2013-01-16 10:00:00,37.5,36.2,29.99,NNE,22,0.0,3.0,95,0.00,,,0.32,,Wunderground v.1.15,2013-01-16 15:00:00,
2013-01-16 10:05:00,37.5,36.2,29.99,NNE,22,0.0,3.0,95,0.00,,,0.32,,Wunderground v.1.15,2013-01-16 15:05:00,
2013-01-16 10:15:00,37.5,36.2,29.99,NNE,22,2.0,4.0,95,0.00,,,0.33,,Wunderground v.1.15,2013-01-16 15:15:00,
2013-01-16 10:20:00,37.7,36.4,29.99,NNE,22,2.0,2.0,95,0.00,,,0.33,,Wunderground v.1.15,2013-01-16 15:20:00,
2013-01-16 10:25:00,37.6,36.3,29.99,NNE,21,2.0,4.0,95,0.00,,,0.33,,Wunderground v.1.15,2013-01-16 15:25:00,
2013-01-16 10:35:00,-999.9,-99.9,29.99,North,5,2.0,4.0,255,-99.99,,,0.33,,Wunderground v.1.15,2013-01-16 15:35:00,
2013-01-16 10:40:00,-999.9,-99.9,29.99,North,355,3.0,4.0,255,-99.99,,,0.33,,Wunderground v.1.15,2013-01-16 15:40:00,
2013-01-16 10:45:00,-999.9,-99.9,29.99,North,355,2.0,5.0,255,-99.99,,,0.33,,Wunderground v.1.15,2013-01-16 15:45:00,
2013-01-16 10:55:00,-999.9,-99.9,29.99,NW,304,3.0,5.0,255,-99.99,,,0.33,,Wunderground v.1.15,2013-01-16 15:55:00,
2013-01-16 11:05:00,-999.9,-99.9,29.99,SW,225,6.0,7.0,255,-99.99,,,0.33,,Wunderground v.1.15,2013-01-16 16:05:00,
2013-01-16 11:10:00,-999.9,-99.9,29.99,SW,228,6.0,6.0,255,-99.99,,,0.33,,Wunderground v.1.15,2013-01-16 16:10:00,
2013-01-16 11:15:00,-999.9,-99.9,29.98,SW,221,6.0,9.0,255,-99.99,,,0.33,,Wunderground v.1.15,2013-01-16 16:15:00,
2013-01-16 11:20:00,-999.9,-99.9,29.98,SW,221,4.0,4.0,255,-99.99,,,0.33,,Wunderground v.1.15,2013-01-16 16:20:00,
2013-01-16 11:25:00,-999.9,-99.9,29.98,SW,221,3.0,9.0,255,-99.99,,,0.33,,Wunderground v.1.15,2013-01-16 16:25:00,
2013-01-16 11:30:00,-999.9,-99.9,29.94,SW,221,1.0,1.0,255,-99.99,,,0.33,,Wunderground v.1.15,2013-01-16 16:30:00,
2013-01-16 11:36:00,-999.9,-99.9,29.94,SW,221,0.0,9.0,255,-99.99,,,0.33,,Wunderground v.1.15,2013-01-16 16:36:00,
2013-01-16 11:45:00,-999.9,-99.9,29.94,SW,221,2.0,10.0,255,-99.99,,,0.33,,Wunderground v.1.15,2013-01-16 16:45:00,
2013-01-16 11:50:00,-999.9,-99.9,29.94,SW,221,1.0,1.0,255,-99.99,,,0.33,,Wunderground v.1.15,2013-01-16 16:50:00,
2013-01-16 11:55:00,-999.9,-99.9,29.94,SW,221,1.0,10.0,255,-99.99,,,0.33,,Wunderground v.1.15,2013-01-16 16:55:00,
2013-01-16 12:00:00,-999.9,-99.9,29.92,SW,219,2.0,2.0,255,-99.99,,,0.33,,Wunderground v.1.15,2013-01-16 17:00:00,
2013-01-16 12:05:00,-999.9,-99.9,29.92,SW,223,3.0,4.0,255,-99.99,,,0.33,,Wunderground v.1.15,2013-01-16 17:05:00,
2013-01-16 12:10:00,-999.9,-99.9,29.92,SW,223,4.0,4.0,255,-99.99,,,0.33,,Wunderground v.1.15,2013-01-16 17:10:00,
2013-01-16 12:20:00,-999.9,-99.9,29.93,SW,223,4.0,4.0,255,-99.99,,,0.33,,Wunderground v.1.15,2013-01-16 17:20:00,
2013-01-16 12:30:00,-999.9,-99.9,29.90,SSW,198,3.0,3.0,255,-99.99,,,0.33,,Wunderground v.1.15,2013-01-16 17:30:00,
2013-01-16 12:35:00,-999.9,-99.9,29.90,South,171,4.0,4.0,255,-99.99,,,0.33,,Wunderground v.1.15,2013-01-16 17:35:00,
2013-01-16 12:40:00,-999.9,-99.9,29.90,South,186,4.0,8.0,255,-99.99,,,0.33,,Wunderground v.1.15,2013-01-16 17:40:00,
2013-01-16 12:45:00,-999.9,-99.9,29.85,South,186,5.0,12.0,255,-99.99,,,0.33,,Wunderground v.1.15,2013-01-16 17:45:00,
2013-01-16 12:50:00,-999.9,-99.9,29.85,South,190,5.0,12.0,255,-99.99,,,0.33,,Wunderground v.1.15,2013-01-16 17:50:00,
2013-01-16 13:00:00,-999.9,-99.9,29.85,South,187,5.0,12.0,255,-99.99,,,0.33,,Wunderground v.1.15,2013-01-16 18:00:00,
2013-01-16 13:05:00,-999.9,-99.9,29.85,SSW,196,6.0,12.0,255,-99.99,,,0.33,,Wunderground v.1.15,2013-01-16 18:05:00,
2013-01-16 13:10:00,-999.9,-99.9,29.85,SSW,194,6.0,12.0,255,-99.99,,,0.33,,Wunderground v.1.15,2013-01-16 18:10:00,
2013-01-16 13:15:00,-999.9,-99.9,29.84,South,179,5.0,14.0,255,-99.99,,,0.33,,Wunderground v.1.15,2013-01-16 18:15:00,
2013-01-16 13:20:00,-999.9,-99.9,29.84,South,183,5.0,14.0,255,-99.99,,,0.33,,Wunderground v.1.15,2013-01-16 18:20:00,
2013-01-16 13:25:00,-999.9,-99.9,29.84,South,187,5.0,14.0,255,-99.99,,,0.33,,Wunderground v.1.15,2013-01-16 18:25:00,
2013-01-16 13:30:00,-999.9,-99.9,29.83,SSE,164,6.0,6.0,255,-99.99,,,0.33,,Wunderground v.1.15,2013-01-16 18:30:00,
2013-01-16 13:40:00,-999.9,-99.9,29.83,SSW,199,6.0,6.0,255,-99.99,,,0.33,,Wunderground v.1.15,2013-01-16 18:40:00,
2013-01-16 13:45:00,-999.9,-99.9,29.83,South,186,5.0,7.0,255,-99.99,,,0.33,,Wunderground v.1.15,2013-01-16 18:45:00,
2013-01-16 13:50:00,-999.9,-99.9,29.83,South,177,4.0,14.0,255,-99.99,,,0.33,,Wunderground v.1.15,2013-01-16 18:50:00,
2013-01-16 13:55:00,-999.9,-99.9,29.83,SW,227,6.0,14.0,255,-99.99,,,0.33,,Wunderground v.1.15,2013-01-16 18:55:00,
2013-01-16 14:05:00,-999.9,-99.9,29.87,SW,220,5.0,14.0,255,-99.99,,,0.33,,Wunderground v.1.15,2013-01-16 19:05:00,
2013-01-16 14:10:00,-999.9,-99.9,29.87,South,191,4.0,14.0,255,-99.99,,,0.33,,Wunderground v.1.15,2013-01-16 19:10:00,
2013-01-16 14:15:00,-999.9,-99.9,29.85,SSW,200,4.0,14.0,255,-99.99,,,0.33,,Wunderground v.1.15,2013-01-16 19:15:00,
2013-01-16 14:20:00,-999.9,-99.9,29.85,South,190,4.0,13.0,255,-99.99,,,0.33,,Wunderground v.1.15,2013-01-16 19:20:00,
2013-01-16 14:25:00,-999.9,-99.9,29.85,South,173,5.0,13.0,255,-99.99,,,0.33,,Wunderground v.1.15,2013-01-16 19:25:00,
2013-01-16 14:30:00,-999.9,-99.9,29.84,NW,307,5.0,13.0,255,-99.99,,,0.33,,Wunderground v.1.15,2013-01-16 19:30:00,
2013-01-16 14:36:00,-999.9,-99.9,29.84,WNW,286,7.0,13.0,255,-99.99,,,0.33,,Wunderground v.1.15,2013-01-16 19:36:00,
2013-01-16 14:45:00,-999.9,-99.9,29.87,SW,218,5.0,8.0,255,-99.99,,,0.33,,Wunderground v.1.15,2013-01-16 19:45:00,
2013-01-16 14:55:00,41.6,40.0,29.87,NW,311,5.0,6.0,94,0.00,,,0.33,,Wunderground v.1.15,2013-01-16 19:55:00,
2013-01-16 15:00:00,41.7,40.1,29.88,SW,219,5.0,19.0,94,0.00,,,0.33,,Wunderground v.1.15,2013-01-16 20:00:00,
2013-01-16 15:05:00,41.7,40.1,29.88,South,190,6.0,19.0,94,0.00,,,0.33,,Wunderground v.1.15,2013-01-16 20:05:00,
2013-01-16 15:10:00,41.7,40.1,29.88,SE,130,6.0,6.0,94,0.00,,,0.33,,Wunderground v.1.15,2013-01-16 20:10:00,
2013-01-16 15:15:00,41.8,40.2,29.80,WSW,250,5.0,10.0,94,0.00,,,0.33,,Wunderground v.1.15,2013-01-16 20:15:00,
2013-01-16 15:20:00,42.0,40.7,29.80,West,274,9.0,9.0,95,0.00,,,0.33,,Wunderground v.1.15,2013-01-16 20:20:00,
2013-01-16 15:25:00,42.1,40.8,29.80,West,281,9.0,13.0,95,0.00,,,0.33,,Wunderground v.1.15,2013-01-16 20:25:00,
2013-01-16 15:35:00,42.1,40.5,29.89,West,262,6.0,13.0,94,0.00,,,0.33,,Wunderground v.1.15,2013-01-16 20:35:00,
2013-01-16 15:40:00,42.1,40.5,29.89,West,262,5.0,5.0,94,0.00,,,0.33,,Wunderground v.1.15,2013-01-16 20:40:00,
2013-01-16 15:45:00,42.0,40.7,29.90,West,265,3.0,25.0,95,0.00,,,0.33,,Wunderground v.1.15,2013-01-16 20:45:00,
2013-01-16 15:50:00,42.0,40.7,29.90,WNW,293,4.0,4.0,95,0.00,,,0.33,,Wunderground v.1.15,2013-01-16 20:50:00,
2013-01-16 15:55:00,42.0,40.4,29.90,NW,304,5.0,5.0,94,0.00,,,0.33,,Wunderground v.1.15,2013-01-16 20:55:00,
2013-01-16 16:05:00,41.8,40.2,29.91,NNW,338,6.0,25.0,94,0.00,,,0.33,,Wunderground v.1.15,2013-01-16 21:05:00,
2013-01-16 16:10:00,41.7,40.1,29.91,NNW,332,7.0,7.0,94,0.00,,,0.33,,Wunderground v.1.15,2013-01-16 21:10:00,
2013-01-16 16:15:00,41.6,40.0,29.92,NNW,331,6.0,17.0,94,0.00,,,0.34,,Wunderground v.1.15,2013-01-16 21:15:00,
2013-01-16 16:20:00,41.5,39.9,29.92,NW,313,5.0,17.0,94,0.00,,,0.34,,Wunderground v.1.15,2013-01-16 21:20:00,
2013-01-16 16:25:00,41.4,39.8,29.92,NNW,340,5.0,17.0,94,0.00,,,0.34,,Wunderground v.1.15,2013-01-16 21:25:00,
2013-01-16 16:35:00,41.2,39.6,29.91,NNW,342,3.0,17.0,94,0.00,,,0.34,,Wunderground v.1.15,2013-01-16 21:35:00,
2013-01-16 16:40:00,41.1,39.5,29.91,NNW,340,3.0,17.0,94,0.00,,,0.34,,Wunderground v.1.15,2013-01-16 21:40:00,
2013-01-16 16:45:00,41.1,39.5,29.93,NNW,340,3.0,17.0,94,0.00,,,0.34,,Wunderground v.1.15,2013-01-16 21:45:00,
2013-01-16 16:50:00,41.0,39.4,29.93,NNW,340,2.0,15.0,94,0.00,,,0.34,,Wunderground v.1.15,2013-01-16 21:50:00,
2013-01-16 16:56:00,41.0,39.7,29.93,NNW,340,2.0,15.0,95,0.00,,,0.34,,Wunderground v.1.15,2013-01-16 21:56:00,
2013-01-16 17:06:00,41.0,39.7,29.93,NW,317,3.0,15.0,95,0.00,,,0.34,,Wunderground v.1.15,2013-01-16 22:06:00,
2013-01-16 17:15:00,40.9,39.6,29.91,NW,317,1.0,2.0,95,0.00,,,0.34,,Wunderground v.1.15,2013-01-16 22:15:00,
2013-01-16 17:25:00,40.8,39.5,29.91,NW,317,1.0,2.0,95,0.00,,,0.34,,Wunderground v.1.15,2013-01-16 22:25:00,
2013-01-16 17:30:00,40.9,39.6,29.91,WNW,298,1.0,1.0,95,0.00,,,0.34,,Wunderground v.1.15,2013-01-16 22:30:00,
2013-01-16 17:40:00,40.9,39.6,29.91,WNW,298,1.0,1.0,95,0.00,,,0.34,,Wunderground v.1.15,2013-01-16 22:40:00,
2013-01-16 17:45:00,40.9,39.6,29.92,WNW,298,0.0,5.0,95,0.00,,,0.35,,Wunderground v.1.15,2013-01-16 22:45:00,
2013-01-16 17:50:00,40.9,39.6,29.92,WNW,298,0.0,5.0,95,0.00,,,0.35,,Wunderground v.1.15,2013-01-16 22:50:00,
2013-01-16 17:55:00,41.0,39.7,29.92,WNW,298,2.0,5.0,95,0.00,,,0.35,,Wunderground v.1.15,2013-01-16 22:55:00,
2013-01-16 18:05:00,41.1,39.8,29.93,WNW,296,3.0,5.0,95,0.00,,,0.35,,Wunderground v.1.15,2013-01-16 23:05:00,
2013-01-16 18:10:00,41.0,39.7,29.93,WNW,296,2.0,2.0,95,0.00,,,0.35,,Wunderground v.1.15,2013-01-16 23:10:00,
2013-01-16 18:15:00,41.0,39.7,29.93,WNW,296,0.0,5.0,95,0.00,,,0.36,,Wunderground v.1.15,2013-01-16 23:15:00,
2013-01-16 18:20:00,41.1,39.8,29.93,WNW,294,1.0,5.0,95,0.00,,,0.36,,Wunderground v.1.15,2013-01-16 23:20:00,
2013-01-16 18:30:00,41.1,39.8,29.94,WNW,294,3.0,3.0,95,0.00,,,0.36,,Wunderground v.1.15,2013-01-16 23:30:00,
2013-01-16 18:35:00,41.1,39.8,29.94,WNW,294,2.0,5.0,95,0.00,,,0.36,,Wunderground v.1.15,2013-01-16 23:35:00,
2013-01-16 18:40:00,41.1,39.8,29.94,WNW,294,1.0,5.0,95,0.00,,,0.36,,Wunderground v.1.15,2013-01-16 23:40:00,
2013-01-16 18:45:00,41.2,39.9,29.96,WNW,294,2.0,6.0,95,0.00,,,0.36,,Wunderground v.1.15,2013-01-16 23:45:00,
2013-01-16 18:50:00,41.2,39.9,29.96,WNW,294,2.0,2.0,95,0.00,,,0.36,,Wunderground v.1.15,2013-01-16 23:50:00,
2013-01-16 19:00:00,41.2,39.9,29.94,WNW,294,1.0,6.0,95,0.00,,,0.36,,Wunderground v.1.15,2013-01-17 00:00:00,
2013-01-16 19:05:00,41.2,39.9,29.94,WNW,294,1.0,6.0,95,0.00,,,0.36,,Wunderground v.1.15,2013-01-17 00:05:00,
2013-01-16 19:10:00,41.2,39.9,29.94,WNW,294,1.0,1.0,95,0.00,,,0.36,,Wunderground v.1.15,2013-01-17 00:10:00,
2013-01-16 19:16:00,41.2,39.9,29.94,WNW,294,0.0,5.0,95,0.00,,,0.36,,Wunderground v.1.15,2013-01-17 00:16:00,
2013-01-16 19:25:00,41.3,40.2,29.94,WNW,294,1.0,5.0,96,0.00,,,0.37,,Wunderground v.1.15,2013-01-17 00:25:00,
2013-01-16 19:30:00,41.3,40.2,29.94,WNW,294,2.0,5.0,96,0.00,,,0.37,,Wunderground v.1.15,2013-01-17 00:30:00,
2013-01-16 19:35:00,41.4,40.3,29.94,WNW,293,3.0,5.0,96,0.00,,,0.37,,Wunderground v.1.15,2013-01-17 00:35:00,
2013-01-16 19:41:00,41.4,40.3,29.94,WNW,293,2.0,5.0,96,0.00,,,0.37,,Wunderground v.1.15,2013-01-17 00:41:00,
2013-01-16 19:50:00,41.4,40.3,29.94,WNW,293,3.0,5.0,96,0.00,,,0.37,,Wunderground v.1.15,2013-01-17 00:50:00,
2013-01-16 19:56:00,41.4,40.3,29.94,WNW,293,2.0,5.0,96,0.00,,,0.37,,Wunderground v.1.15,2013-01-17 00:56:00,
2013-01-16 20:05:00,41.5,40.4,29.95,WNW,292,2.0,5.0,96,0.00,,,0.37,,Wunderground v.1.15,2013-01-17 01:05:00,
2013-01-16 20:10:00,41.5,40.4,29.95,WNW,292,2.0,5.0,96,0.00,,,0.37,,Wunderground v.1.15,2013-01-17 01:10:00,
2013-01-16 20:20:00,41.6,40.5,29.95,WNW,292,2.0,2.0,96,0.00,,,0.37,,Wunderground v.1.15,2013-01-17 01:20:00,
2013-01-16 20:30:00,41.6,40.5,29.94,WNW,292,1.0,1.0,96,0.00,,,0.37,,Wunderground v.1.15,2013-01-17 01:30:00,
2013-01-16 20:35:00,41.6,40.5,29.94,WNW,292,1.0,2.0,96,0.00,,,0.37,,Wunderground v.1.15,2013-01-17 01:35:00,
2013-01-16 20:40:00,41.7,40.6,29.94,WNW,292,1.0,5.0,96,0.00,,,0.37,,Wunderground v.1.15,2013-01-17 01:40:00,
2013-01-16 20:46:00,41.8,40.7,29.95,WNW,292,2.0,5.0,96,0.00,,,0.37,,Wunderground v.1.15,2013-01-17 01:46:00,
2013-01-16 20:55:00,41.8,40.7,29.95,WNW,292,1.0,4.0,96,0.00,,,0.37,,Wunderground v.1.15,2013-01-17 01:55:00,
2013-01-16 21:00:00,41.8,40.7,29.95,WNW,292,1.0,4.0,96,0.00,,,0.37,,Wunderground v.1.15,2013-01-17 02:00:00,
2013-01-16 21:10:00,41.9,40.8,29.95,WNW,292,1.0,1.0,96,0.00,,,0.37,,Wunderground v.1.15,2013-01-17 02:10:00,
2013-01-16 21:15:00,41.9,40.8,29.94,WNW,292,1.0,4.0,96,0.00,,,0.37,,Wunderground v.1.15,2013-01-17 02:15:00,
2013-01-16 21:21:00,41.9,40.8,29.94,WNW,292,1.0,1.0,96,0.00,,,0.37,,Wunderground v.1.15,2013-01-17 02:21:00,
2013-01-16 21:31:00,42.0,40.9,29.94,WNW,292,0.0,4.0,96,0.00,,,0.37,,Wunderground v.1.15,2013-01-17 02:31:00,
2013-01-16 21:40:00,42.0,40.9,29.94,WNW,292,1.0,4.0,96,0.00,,,0.37,,Wunderground v.1.15,2013-01-17 02:40:00,
2013-01-16 21:46:00,42.0,40.9,29.94,WNW,292,2.0,4.0,96,0.00,,,0.37,,Wunderground v.1.15,2013-01-17 02:46:00,
2013-01-16 21:55:00,42.1,41.0,29.94,WNW,291,2.0,4.0,96,0.00,,,0.37,,Wunderground v.1.15,2013-01-17 02:55:00,
2013-01-16 22:00:00,42.1,41.0,29.94,WNW,290,1.0,1.0,96,0.00,,,0.37,,Wunderground v.1.15,2013-01-17 03:00:00,
2013-01-16 22:10:00,42.2,41.1,29.94,WNW,288,2.0,4.0,96,0.00,,,0.37,,Wunderground v.1.15,2013-01-17 03:10:00,
2013-01-16 22:15:00,42.2,41.1,29.94,WNW,288,3.0,5.0,96,0.00,,,0.37,,Wunderground v.1.15,2013-01-17 03:15:00,
2013-01-16 22:25:00,42.2,41.1,29.94,WNW,284,3.0,5.0,96,0.00,,,0.37,,Wunderground v.1.15,2013-01-17 03:25:00,
2013-01-16 22:35:00,42.3,41.2,29.94,WNW,284,1.0,5.0,96,0.00,,,0.37,,Wunderground v.1.15,2013-01-17 03:35:00,
2013-01-16 22:40:00,42.3,41.2,29.94,WNW,284,1.0,5.0,96,0.00,,,0.37,,Wunderground v.1.15,2013-01-17 03:40:00,
2013-01-16 22:45:00,42.4,41.3,29.94,WNW,284,2.0,6.0,96,0.00,,,0.37,,Wunderground v.1.15,2013-01-17 03:45:00,
2013-01-16 22:50:00,42.4,41.3,29.94,WNW,284,2.0,6.0,96,0.00,,,0.37,,Wunderground v.1.15,2013-01-17 03:50:00,
2013-01-16 22:55:00,42.4,41.3,29.94,WNW,284,2.0,6.0,96,0.00,,,0.37,,Wunderground v.1.15,2013-01-17 03:55:00,
2013-01-16 23:00:00,42.4,41.3,29.95,WNW,284,1.0,1.0,96,0.00,,,0.37,,Wunderground v.1.15,2013-01-17 04:00:00,
2013-01-16 23:05:00,42.4,41.3,29.95,WNW,284,0.0,6.0,96,0.00,,,0.37,,Wunderground v.1.15,2013-01-17 04:05:00,
2013-01-16 23:16:00,42.4,41.3,29.94,WNW,284,0.0,6.0,96,0.00,,,0.37,,Wunderground v.1.15,2013-01-17 04:16:00,
2013-01-16 23:25:00,42.4,41.3,29.94,WNW,284,0.0,5.0,96,0.00,,,0.37,,Wunderground v.1.15,2013-01-17 04:25:00,
2013-01-16 23:30:00,42.5,41.4,29.96,WNW,284,1.0,5.0,96,0.00,,,0.37,,Wunderground v.1.15,2013-01-17 04:30:00,
2013-01-16 23:35:00,42.5,41.4,29.96,WNW,282,3.0,5.0,96,0.00,,,0.37,,Wunderground v.1.15,2013-01-17 04:35:00,
2013-01-16 23:40:00,42.5,41.4,29.96,WNW,282,3.0,3.0,96,0.00,,,0.37,,Wunderground v.1.15,2013-01-17 04:40:00,
2013-01-16 23:45:00,42.5,41.4,29.94,WNW,282,1.0,5.0,96,0.00,,,0.37,,Wunderground v.1.15,2013-01-17 04:45:00,
2013-01-16 23:50:00,42.5,41.4,29.94,WNW,282,0.0,5.0,96,0.00,,,0.37,,Wunderground v.1.15,2013-01-17 04:50:00,
2013-01-16 23:55:00,42.5,41.4,29.94,WNW,282,0.0,5.0,96,0.00,,,0.38,,Wunderground v.1.15,2013-01-17 04:55:00,